TimeCDT,TemperatureF,Dew PointF,Humidity,Sea Level PressureIn,VisibilityMPH,Wind Direction,Wind SpeedMPH,Gust SpeedMPH,PrecipitationIn,Events,Conditions,WindDirDegrees,DateUTC
12:52 AM,37.9,36.0,93,30.33,10.0,Calm,Calm,-,N/A,,Clear,0,2013-05-26 05:52:00
1:52 AM,37.9,36.0,93,30.31,10.0,Calm,Calm,-,N/A,,Clear,0,2013-05-26 06:52:00
2:52 AM,37.0,35.1,93,30.29,8.0,Calm,Calm,-,N/A,,Clear,0,2013-05-26 07:52:00
3:52 AM,37.0,35.1,93,30.30,10.0,Calm,Calm,-,N/A,,Clear,0,2013-05-26 08:52:00
4:52 AM,39.9,36.0,86,30.30,10.0,North,4.6,-,N/A,,Clear,360,2013-05-26 09:52:00
5:52 AM,39.9,37.0,89,30.30,10.0,NNE,3.5,-,N/A,,Clear,20,2013-05-26 10:52:00
6:52 AM,48.0,41.0,77,30.30,10.0,NE,8.1,-,N/A,,Mostly Cloudy,50,2013-05-26 11:52:00
7:52 AM,48.9,41.0,74,30.31,10.0,ENE,4.6,-,N/A,,Clear,60,2013-05-26 12:52:00
8:52 AM,53.1,42.1,66,30.31,10.0,ESE,8.1,-,N/A,,Clear,110,2013-05-26 13:52:00
9:52 AM,55.9,45.0,67,30.31,10.0,East,8.1,-,N/A,,Clear,100,2013-05-26 14:52:00
10:52 AM,55.9,44.1,64,30.31,10.0,East,9.2,-,N/A,,Clear,100,2013-05-26 15:52:00
11:52 AM,57.9,44.1,60,30.31,10.0,East,8.1,-,N/A,,Clear,90,2013-05-26 16:52:00
12:52 PM,55.0,44.1,67,30.29,10.0,East,8.1,-,N/A,,Clear,100,2013-05-26 17:52:00
1:52 PM,59.0,43.0,55,30.26,10.0,East,9.2,-,N/A,,Clear,80,2013-05-26 18:52:00
2:52 PM,59.0,44.1,58,30.26,10.0,East,8.1,-,N/A,,Overcast,80,2013-05-26 19:52:00
3:52 PM,59.0,42.1,53,30.25,10.0,East,6.9,-,N/A,,Mostly Cloudy,80,2013-05-26 20:52:00
4:52 PM,57.9,43.0,58,30.22,10.0,ENE,9.2,-,N/A,,Mostly Cloudy,60,2013-05-26 21:52:00
5:52 PM,57.0,42.1,57,30.20,10.0,ENE,5.8,-,0.00,Rain,Light Rain,70,2013-05-26 22:52:00
6:52 PM,54.0,45.0,72,30.20,10.0,North,3.5,-,0.00,,Overcast,10,2013-05-26 23:52:00
7:52 PM,52.0,44.1,74,30.19,10.0,NE,5.8,-,0.00,,Overcast,50,2013-05-27 00:52:00
8:52 PM,51.1,42.1,71,30.20,10.0,ENE,4.6,-,N/A,,Overcast,60,2013-05-27 01:52:00
9:52 PM,51.1,42.1,71,30.19,10.0,NNE,6.9,-,N/A,,Overcast,20,2013-05-27 02:52:00
10:52 PM,51.1,41.0,68,30.17,10.0,NE,6.9,-,N/A,,Overcast,50,2013-05-27 03:52:00
11:52 PM,51.1,41.0,68,30.16,10.0,NE,4.6,-,N/A,,Overcast,40,2013-05-27 04:52:00